| time (UTC) | temp F | wind direction | speed knots | gust knots | rain 1hr in | rain 24hr in | rain mn in | humidity % | barometer mb |
| 20260508070552 | 46 | 281 | 0.0 | 0.0 | 0.00 | 0.42 | 0.00 | 64 | 1008.1 |
| 20260508065552 | 47 | 281 | 0.0 | 0.0 | 0.00 | 0.42 | 0.00 | 62 | 1008.2 |
| 20260508065055 | 47 | 281 | 0.0 | 0.0 | 0.00 | 0.42 | 0.00 | 60 | 1008.2 |
| 20260508063552 | 47 | 281 | 0.0 | 0.9 | 0.00 | 0.42 | 0.00 | 59 | 1008.1 |
| 20260508062554 | 47 | 281 | 0.0 | 0.0 | 0.00 | 0.42 | 0.00 | 61 | 1008.1 |
| 20260508061552 | 47 | 281 | 0.0 | 0.0 | 0.00 | 0.42 | 0.00 | 63 | 1007.9 |
| 20260508060551 | 48 | 281 | 0.0 | 0.0 | 0.00 | 0.42 | 0.00 | 63 | 1007.9 |
| 20260508060054 | 49 | 281 | 0.0 | 0.0 | 0.00 | 0.42 | 0.00 | 58 | 1007.9 |
| 20260508054546 | 49 | 281 | 0.0 | 0.0 | 0.00 | 0.42 | 0.00 | 55 | 1008.0 |
| 20260508053546 | 50 | 281 | 0.0 | 0.9 | 0.00 | 0.42 | 0.00 | 53 | 1008.0 |
| 20260508052547 | 51 | 264 | 0.0 | 0.0 | 0.00 | 0.42 | 0.00 | 53 | 1007.9 |
| 20260508052047 | 51 | 262 | 0.0 | 0.9 | 0.00 | 0.42 | 0.00 | 52 | 1007.9 |
| 20260508051046 | 52 | 262 | 0.0 | 0.9 | 0.00 | 0.42 | 0.00 | 51 | 1007.9 |
| 20260508045547 | 52 | 245 | 0.0 | 4.3 | 0.00 | 0.42 | 0.00 | 50 | 1007.9 |
| 20260508044547 | 52 | 316 | 0.0 | 6.1 | 0.00 | 0.42 | 0.00 | 50 | 1007.9 |
| 20260508043547 | 52 | 295 | 0.0 | 1.7 | 0.00 | 0.42 | 0.00 | 50 | 1007.9 |
| 20260508042546 | 52 | 257 | 0.0 | 1.7 | 0.00 | 0.42 | 0.00 | 51 | 1007.9 |
| 20260508041540 | 52 | 346 | 0.0 | 0.9 | 0.00 | 0.42 | 0.00 | 50 | 1007.9 |
| 20260508040540 | 52 | 260 | 0.0 | 1.7 | 0.00 | 0.42 | 0.00 | 50 | 1007.9 |
| 20260508035539 | 53 | 280 | 0.0 | 1.7 | 0.00 | 0.42 | 0.42 | 49 | 1008.0 |
| 20260508034541 | 53 | 287 | 0.0 | 3.5 | 0.00 | 0.42 | 0.42 | 49 | 1007.9 |
| 20260508033538 | 52 | 278 | 0.0 | 2.6 | 0.00 | 0.42 | 0.42 | 50 | 1008.0 |
| 20260508033040 | 52 | 283 | 0.0 | 1.7 | 0.00 | 0.42 | 0.42 | 50 | 1008.0 |
| 20260508031538 | 52 | 332 | 0.0 | 1.7 | 0.00 | 0.42 | 0.42 | 52 | 1008.0 |
| 20260508031040 | 51 | 258 | 0.0 | 1.7 | 0.00 | 0.42 | 0.42 | 54 | 1008.1 |
| 20260508025539 | 52 | 257 | 0.0 | 1.7 | 0.00 | 0.42 | 0.42 | 53 | 1008.2 |
| 20260508024535 | 52 | 274 | 0.0 | 0.9 | 0.00 | 0.42 | 0.42 | 52 | 1008.2 |
| 20260508023532 | 53 | 246 | 0.0 | 0.9 | 0.00 | 0.42 | 0.42 | 51 | 1008.0 |
| 20260508023034 | 53 | 258 | 0.0 | 0.9 | 0.00 | 0.42 | 0.42 | 51 | 1008.1 |
| 20260508021537 | 53 | 221 | 0.0 | 2.6 | 0.00 | 0.42 | 0.42 | 50 | 1008.2 |
| 20260508021034 | 53 | 274 | 0.0 | 3.5 | 0.00 | 0.42 | 0.42 | 50 | 1008.1 |
| 20260508020648 | 54 | 302 | 0.0 | 0.9 | 0.00 | 0.42 | 0.42 | 50 | 1008.0 |
| 20260508014534 | 54 | 235 | 0.0 | 0.9 | 0.00 | 0.42 | 0.42 | 50 | 1008.1 |
| 20260508013538 | 55 | 283 | 0.0 | 3.5 | 0.00 | 0.42 | 0.42 | 49 | 1007.8 |
| 20260508013033 | 55 | 284 | 0.0 | 1.7 | 0.00 | 0.42 | 0.42 | 49 | 1007.7 |
| 20260508011533 | 55 | 266 | 0.0 | 0.9 | 0.00 | 0.43 | 0.42 | 48 | 1007.6 |
| 20260508011527 | 55 | 246 | 0.0 | 0.9 | 0.00 | 0.42 | 0.42 | 48 | 1007.8 |
| 20260508005528 | 56 | 64 | 0.0 | 3.5 | 0.00 | 0.43 | 0.42 | 46 | 1007.5 |
| 20260508004532 | 57 | 269 | 0.0 | 5.2 | 0.00 | 0.43 | 0.42 | 43 | 1007.3 |
| 20260508004526 | 56 | 266 | 0.0 | 0.9 | 0.00 | 0.43 | 0.42 | 45 | 1007.4 |
| 20260508003028 | 57 | 286 | 0.0 | 2.6 | 0.00 | 0.43 | 0.42 | 42 | 1006.6 |
| 20260508001526 | 58 | 40 | 0.0 | 5.2 | 0.00 | 0.43 | 0.42 | 42 | 1006.5 |
| 20260508001028 | 58 | 289 | 0.0 | 3.5 | 0.00 | 0.44 | 0.42 | 42 | 1006.5 |
| 20260507235526 | 59 | 300 | 0.0 | 1.7 | 0.00 | 0.45 | 0.42 | 40 | 1006.3 |
| 20260507235025 | 60 | 293 | 0.9 | 6.1 | 0.00 | 0.46 | 0.42 | 40 | 1006.3 |
| 20260507233525 | 60 | 294 | 0.9 | 6.1 | 0.00 | 0.47 | 0.42 | 38 | 1006.3 |
| 20260507232525 | 61 | 287 | 0.9 | 4.3 | 0.00 | 0.48 | 0.42 | 37 | 1006.2 |
| 20260507231525 | 62 | 284 | 0.9 | 5.2 | 0.00 | 0.48 | 0.42 | 37 | 1005.9 |
| 20260507230522 | 62 | 276 | 0.9 | 3.5 | 0.00 | 0.49 | 0.42 | 37 | 1005.8 |
| 20260507225522 | 63 | 209 | 0.0 | 1.7 | 0.00 | 0.50 | 0.42 | 37 | 1005.6 |
| 20260507224528 | 64 | 277 | 0.9 | 5.2 | 0.00 | 0.51 | 0.42 | 35 | 1005.5 |
| 20260507224522 | 63 | 52 | 0.9 | 3.5 | 0.00 | 0.51 | 0.42 | 35 | 1005.6 |
| 20260507222523 | 64 | 331 | 0.9 | 5.2 | 0.00 | 0.52 | 0.42 | 34 | 1005.4 |
| 20260507222024 | 65 | 255 | 1.7 | 7.0 | 0.00 | 0.52 | 0.42 | 35 | 1005.3 |
| 20260507220523 | 66 | 91 | 0.9 | 6.1 | 0.00 | 0.52 | 0.42 | 34 | 1005.3 |
| 20260507215522 | 67 | 295 | 0.9 | 4.3 | 0.00 | 0.52 | 0.42 | 33 | 1005.2 |
| 20260507214523 | 67 | 86 | 1.7 | 7.0 | 0.00 | 0.52 | 0.42 | 36 | 1005.1 |
| 20260507214024 | 67 | 288 | 0.9 | 6.1 | 0.00 | 0.52 | 0.42 | 34 | 1005.1 |
| 20260507212522 | 68 | 355 | 0.9 | 5.2 | 0.00 | 0.52 | 0.42 | 32 | 1005.0 |
| 20260507211525 | 68 | 261 | 0.9 | 4.3 | 0.00 | 0.52 | 0.42 | 32 | 1004.9 |
| 20260507210523 | 67 | 148 | 0.9 | 6.1 | 0.00 | 0.52 | 0.42 | 32 | 1004.9 |
| 20260507205517 | 68 | 338 | 0.9 | 7.0 | 0.00 | 0.52 | 0.42 | 32 | 1004.8 |
| 20260507204518 | 68 | 284 | 1.7 | 7.0 | 0.00 | 0.52 | 0.42 | 34 | 1004.8 |
| 20260507203516 | 68 | 238 | 0.9 | 3.5 | 0.00 | 0.52 | 0.42 | 36 | 1004.8 |
| 20260507203018 | 68 | 148 | 0.0 | 3.5 | 0.00 | 0.52 | 0.42 | 34 | 1004.7 |
| 20260507202017 | 67 | 276 | 0.9 | 6.1 | 0.00 | 0.52 | 0.42 | 35 | 1004.8 |
| 20260507200517 | 67 | 215 | 1.7 | 7.0 | 0.00 | 0.52 | 0.42 | 36 | 1004.7 |
| 20260507195516 | 67 | 89 | 0.9 | 6.1 | 0.00 | 0.52 | 0.42 | 33 | 1004.8 |
| 20260507195017 | 67 | 281 | 1.7 | 6.1 | 0.00 | 0.52 | 0.42 | 36 | 1005.1 |
| 20260507193516 | 67 | 40 | 0.9 | 4.3 | 0.00 | 0.52 | 0.42 | 35 | 1005.2 |
| 20260507192510 | 66 | 47 | 0.9 | 6.1 | 0.00 | 0.52 | 0.42 | 36 | 1005.4 |
| 20260507191510 | 66 | 141 | 0.9 | 2.6 | 0.00 | 0.52 | 0.42 | 39 | 1005.6 |
| 20260507191013 | 65 | 215 | 1.7 | 7.0 | 0.00 | 0.52 | 0.42 | 38 | 1005.7 |
| 20260507185512 | 64 | 218 | 0.9 | 4.3 | 0.00 | 0.52 | 0.42 | 51 | 1005.8 |
| 20260507184510 | 65 | 293 | 0.9 | 2.6 | 0.00 | 0.52 | 0.42 | 47 | 1006.0 |
| 20260507183510 | 65 | 257 | 0.9 | 3.5 | 0.00 | 0.52 | 0.42 | 68 | 1006.1 |
| 20260507183013 | 64 | 221 | 0.9 | 2.6 | 0.00 | 0.52 | 0.42 | 68 | 1006.2 |
| 20260507181511 | 63 | 236 | 0.9 | 3.5 | 0.00 | 0.52 | 0.42 | 70 | 1006.4 |
| 20260507180510 | 62 | 135 | 1.7 | 3.5 | 0.00 | 0.52 | 0.42 | 74 | 1006.4 |
| 20260507175513 | 60 | 118 | 0.0 | 0.9 | 0.00 | 0.52 | 0.42 | 73 | 1006.7 |
| 20260507175505 | 60 | 85 | 0.9 | 5.2 | 0.00 | 0.52 | 0.42 | 73 | 1006.5 |
| 20260507173507 | 60 | 120 | 0.9 | 2.6 | 0.00 | 0.52 | 0.42 | 70 | 1006.8 |
| 20260507172505 | 61 | 214 | 0.9 | 5.2 | 0.00 | 0.52 | 0.42 | 70 | 1006.8 |
| 20260507171517 | 63 | 174 | 0.9 | 3.5 | 0.00 | 0.52 | 0.42 | 68 | 1007.0 |
| 20260507170505 | 64 | 246 | 0.9 | 4.3 | 0.00 | 0.52 | 0.42 | 58 | 1007.0 |
| 20260507165504 | 65 | 238 | 0.9 | 4.3 | 0.00 | 0.52 | 0.42 | 54 | 1007.1 |
| 20260507164504 | 66 | 276 | 0.9 | 4.3 | 0.00 | 0.52 | 0.42 | 55 | 1007.2 |
| 20260507163504 | 65 | 239 | 0.9 | 4.3 | 0.00 | 0.52 | 0.42 | 57 | 1007.2 |
| 20260507163003 | 63 | 252 | 0.0 | 3.5 | 0.00 | 0.52 | 0.42 | 61 | 1007.3 |
| 20260507161459 | 62 | 205 | 0.9 | 3.5 | 0.00 | 0.52 | 0.42 | 65 | 1007.3 |
| 20260507160458 | 62 | 214 | 0.9 | 4.3 | 0.00 | 0.52 | 0.42 | 65 | 1007.6 |
| 20260507155458 | 61 | 335 | 0.9 | 4.3 | 0.00 | 0.52 | 0.42 | 68 | 1007.8 |
| 20260507155000 | 60 | 315 | 0.0 | 1.7 | 0.00 | 0.52 | 0.42 | 69 | 1007.8 |
| 20260507154003 | 60 | 69 | 0.0 | 3.5 | 0.00 | 0.52 | 0.42 | 70 | 1008.0 |
| 20260507152459 | 59 | 309 | 0.9 | 5.2 | 0.00 | 0.52 | 0.42 | 71 | 1008.1 |
| 20260507151459 | 59 | 229 | 1.7 | 6.1 | 0.00 | 0.52 | 0.42 | 74 | 1008.1 |
| 20260507150459 | 58 | 250 | 0.9 | 4.3 | 0.00 | 0.52 | 0.42 | 72 | 1008.2 |
| 20260507145459 | 57 | 302 | 0.9 | 4.3 | 0.00 | 0.52 | 0.42 | 78 | 1008.3 |
| 20260507145453 | 58 | 296 | 0.9 | 4.3 | 0.00 | 0.52 | 0.42 | 74 | 1008.0 |
| 20260507143454 | 56 | 232 | 0.0 | 2.6 | 0.00 | 0.52 | 0.42 | 79 | 1008.1 |
| 20260507142451 | 55 | 63 | 0.9 | 3.5 | 0.00 | 0.52 | 0.42 | 81 | 1008.3 |
| 20260507141453 | 55 | 276 | 0.9 | 3.5 | 0.00 | 0.52 | 0.42 | 81 | 1008.5 |
| 20260507140454 | 54 | 262 | 0.9 | 3.5 | 0.00 | 0.52 | 0.42 | 79 | 1008.5 |
| 20260507135452 | 53 | 268 | 0.0 | 2.6 | 0.00 | 0.52 | 0.42 | 75 | 1008.6 |
| 20260507134454 | 52 | 290 | 0.0 | 2.6 | 0.00 | 0.52 | 0.42 | 73 | 1008.3 |
| 20260507133454 | 51 | 163 | 0.0 | 1.7 | 0.00 | 0.52 | 0.42 | 73 | 1008.5 |
| 20260507132447 | 51 | 272 | 0.0 | 0.9 | 0.01 | 0.52 | 0.42 | 74 | 1008.7 |
| 20260507131947 | 50 | 293 | 0.0 | 1.7 | 0.01 | 0.52 | 0.42 | 73 | 1008.4 |
| 20260507130446 | 50 | 321 | 0.0 | 0.9 | 0.02 | 0.52 | 0.42 | 73 | 1008.6 |
| 20260507125945 | 49 | 304 | 0.0 | 0.9 | 0.03 | 0.52 | 0.42 | 72 | 1008.4 |
| 20260507124945 | 49 | 253 | 0.0 | 1.7 | 0.03 | 0.52 | 0.42 | 71 | 1008.6 |
| 20260507123444 | 49 | 6 | 0.0 | 0.9 | 0.03 | 0.52 | 0.42 | 69 | 1008.5 |
| 20260507122446 | 49 | 110 | 0.0 | 0.9 | 0.03 | 0.51 | 0.41 | 70 | 1008.8 |
| 20260507121948 | 49 | 291 | 0.0 | 0.9 | 0.04 | 0.51 | 0.41 | 69 | 1008.7 |
| 20260507120445 | 48 | 308 | 0.0 | 0.9 | 0.03 | 0.50 | 0.40 | 69 | 1008.4 |
| 20260507115442 | 48 | 302 | 0.0 | 0.9 | 0.03 | 0.49 | 0.39 | 70 | 1008.7 |
| 20260507114438 | 48 | 304 | 0.0 | 0.9 | 0.03 | 0.49 | 0.39 | 70 | 1008.5 |
| 20260507113439 | 48 | 291 | 0.0 | 1.7 | 0.04 | 0.49 | 0.39 | 71 | 1008.6 |
| 20260507112438 | 48 | 256 | 0.0 | 0.9 | 0.03 | 0.48 | 0.38 | 70 | 1008.6 |
| 20260507111438 | 48 | 295 | 0.9 | 4.3 | 0.03 | 0.47 | 0.37 | 70 | 1008.9 |
| 20260507110439 | 49 | 285 | 0.0 | 2.6 | 0.04 | 0.47 | 0.37 | 70 | 1007.8 |
| 20260507105940 | 49 | 316 | 0.0 | 2.6 | 0.04 | 0.46 | 0.37 | 70 | 1007.7 |
| 20260507104439 | 49 | 309 | 0.0 | 1.7 | 0.04 | 0.46 | 0.36 | 69 | 1007.8 |
| 20260507103438 | 50 | 56 | 0.9 | 3.5 | 0.04 | 0.45 | 0.35 | 69 | 1007.9 |
| 20260507102432 | 50 | 278 | 0.0 | 3.5 | 0.05 | 0.45 | 0.35 | 67 | 1007.7 |
| 20260507101433 | 50 | 276 | 0.0 | 2.6 | 0.06 | 0.44 | 0.34 | 67 | 1007.9 |
| 20260507100432 | 51 | 308 | 0.0 | 1.7 | 0.06 | 0.43 | 0.33 | 67 | 1007.2 |
| 20260507095432 | 51 | 319 | 0.9 | 3.5 | 0.06 | 0.42 | 0.32 | 67 | 1007.4 |
| 20260507094934 | 51 | 50 | 0.0 | 2.6 | 0.08 | 0.42 | 0.32 | 66 | 1007.4 |
| 20260507093433 | 52 | 284 | 0.0 | 2.6 | 0.08 | 0.41 | 0.31 | 66 | 1007.1 |
| 20260507092933 | 52 | 52 | 0.0 | 1.7 | 0.11 | 0.40 | 0.30 | 65 | 1007.2 |
| 20260507091433 | 53 | 322 | 0.9 | 3.5 | 0.17 | 0.38 | 0.28 | 65 | 1007.1 |
| 20260507090435 | 53 | 342 | 0.0 | 0.9 | 0.26 | 0.37 | 0.27 | 65 | 1007.1 |
| 20260507085429 | 54 | 275 | 0.0 | 3.5 | 0.26 | 0.36 | 0.26 | 65 | 1007.4 |
| 20260507084428 | 54 | 290 | 0.0 | 1.7 | 0.24 | 0.34 | 0.24 | 64 | 1006.8 |
| 20260507083430 | 55 | 210 | 0.0 | 2.6 | 0.19 | 0.29 | 0.19 | 64 | 1007.1 |
| 20260507083426 | 55 | 297 | 0.0 | 0.9 | 0.22 | 0.32 | 0.23 | 64 | 1006.9 |
| 20260507081427 | 55 | 255 | 0.0 | 1.7 | 0.11 | 0.21 | 0.12 | 64 | 1007.4 |
| 20260507080427 | 54 | 197 | 0.0 | 0.9 | 0.01 | 0.11 | 0.01 | 64 | 1006.6 |
| 20260507075427 | 55 | 221 | 0.0 | 0.0 | 0.00 | 0.10 | 0.00 | 64 | 1006.2 |
| 20260507074427 | 55 | 221 | 0.0 | 0.0 | 0.00 | 0.10 | 0.00 | 64 | 1006.2 |
| 20260507073426 | 55 | 221 | 0.0 | 0.0 | 0.00 | 0.10 | 0.00 | 64 | 1006.1 |
| 20260507072922 | 55 | 221 | 0.0 | 0.0 | 0.00 | 0.10 | 0.00 | 64 | 1006.2 |
| 20260507071420 | 55 | 221 | 0.0 | 0.0 | 0.00 | 0.10 | 0.00 | 64 | 1006.2 |